User: anonymous   Login
Location: Caltech
(34.1382°N, 118.1253°W)
Time: 12:56:58
(UTC-08:00)
Language:

ALOS - Orbit

View from above orbital plane
View from above orbital plane
View from above satellite
View from above satellite

Ground track
Ground track

The orbit data is extracted from the following two-line orbital elements,

1 28931U 06002A   18051.50780749  .00000132  00000-0  34558-4 0  9991
2 28931  97.8257  71.1817 0000666  88.2764 271.8516 14.62459549643755
Epoch (UTC): 20 February 2018 12:11:14
Eccentricity: 0.0000666
inclination: 97.8257°
perigee height: 685 km
apogee height: 686 km
right ascension of ascending node: 71.1817°
argument of perigee: 88.2764°
revolutions per day: 14.62459549
mean anomaly at epoch: 271.8516°
orbit number at epoch: 64375

The dashed part of the orbit path shows where the satellite is in the earth's shadow,  

DLR